Location: B?ogocice
(50.2413°N, 20.2361°E)
Time: 22:51:22
(UTC+00:00)

Cosmos 1892 Rocket - Pass Details

Date: 15 June 2024
Orbit: 603 x 629 km, 82.5° (Epoch: 18 July)

Event Time Altitude Azimuth Distance (km) Brightness Sun altitude
Exits shadow 01:36:54 - 186° (S) 2,571 6.2 -6.6°
Reaches altitude 10° 01:38:21 10° 185° (S) 1,979 5.7 -6.5°
Maximum altitude 01:42:44 82° 99° (E) 635 3.7 -6.0°
Drops below altitude 10° 01:47:13 10° 12° (NNE) 2,012 7.3 -5.6°
Sets 01:49:28 0° 11° (NNE) 2,927 8.2 -5.3°
